Αρχική σελίδα
METAR-TAF:

METAR-TAF

Αεροδρόμια :

Claremore, Οκλαχόμα, Ηνωμένες Πολιτείες Αμερικής

γεωγραφικό πλάτος: 36-17-40N, γεωγραφικό μήκος: 095-28-47W, υψόμετρο: 221 μ

Παρών καιρός

Η αναφορά έγινε 12 λεπτά πριν, στις 18:35 UTC
Άνεμος 7 kt από Β
Θερμοκρασία 0°C
Υγρασία 100%
Πίεση 1026 hPa
Ορατότητα: 4.8 χλμ
Νεφοσκεπής σε ύψος 700 πόδια
Αχλής

METAR: KGCM 181835Z AUTO 35007KT 3SM BR OVC007 00/00 A3030 RMK AO2 TSNO

Χρόνος: 12:47 (18:47 UTC)


TAF: λείπει

Μετεωρολογικές αναφορές και προγνώσεις για περισσότερα από 4000 αεροδρόμια (δελτία METAR και TAF).

Οι διαθέσιμοι σταθμοί απεικονίζονται στο χάρτη με κίτρινες και κόκκινες κουκκίδες.

Μετακινήστε το ποντίκι πάνω από τις κουκκίδες για να δείτε το όνομα του σταθμού.

Στη συνέχεια, κάντε κλικ για να δείτε τις μετεωρολογικές αναφορές και τις προγνώσεις καιρού.

Για να αλλάξετε το χάρτη: κάντε κλικ στα πράσινα κουμπιά με τον μαύρο σταυρό για να ζουμάρετε, στο πράσινο κουμπί με την παύλα για να αφαιρέσετε το ζουμ ή στα πράσινα βέλη για να αντιπαραβάλλετε χάρτες.


METAR-TAF: